This is the latest recevied weather packets stored in our database for station/object K5IDL. If no packets are shown the sender has not sent any weather packets the latest 10 day(s).
| Time | Temp. | Humidity | Pressure | Rain* | Wind** | Luminosity | Snow |
|---|---|---|---|---|---|---|---|
| 1777323553 | 34.44° C | 42% | 1008.7 hPa | 0 mm | - | 83 W/m² | - |
| 1777323250 | 33.89° C | 44% | 1008.6 hPa | 0 mm | - | 72 W/m² | - |
| 1777322948 | 34.44° C | 45% | 1008.5 hPa | 0 mm | - | 70 W/m² | - |
| 1777322646 | 33.89° C | 44% | 1008.5 hPa | 0 mm | - | 102 W/m² | - |
| 1777322343 | 33.89° C | 43% | 1008.7 hPa | 0 mm | - | 79 W/m² | - |
| 1777322040 | 34.44° C | 45% | 1008.9 hPa | 0 mm | - | 66 W/m² | - |
| 1777321736 | 33.89° C | 44% | 1008.7 hPa | 0 mm | - | 64 W/m² | - |
| 1777321434 | 34.44° C | 43% | 1008.9 hPa | 0 mm | - | 68 W/m² | - |
| 1777321130 | 34.44° C | 44% | 1008.8 hPa | 0 mm | - | 72 W/m² | - |
| 1777320828 | 33.89° C | 45% | 1009 hPa | 0 mm | - | 100 W/m² | - |
| 1777320524 | 33.89° C | 44% | 1009 hPa | 0 mm | - | 94 W/m² | - |
| 1777320223 | 34.44° C | 41% | 1008.8 hPa | 0 mm | - | 133 W/m² | - |
| 1777319919 | 33.89° C | 40% | 1009 hPa | 0 mm | - | 248 W/m² | - |
| 1777319616 | 34.44° C | 41% | 1009.2 hPa | 0 mm | - | 76 W/m² | - |
| 1777319313 | 33.89° C | 41% | 1008.9 hPa | 0 mm | - | 102 W/m² | - |
| 1777319010 | 33.89° C | 44% | 1009 hPa | 0 mm | - | 174 W/m² | - |
| 1777318707 | 33.89° C | 44% | 1009 hPa | 0 mm | - | 514 W/m² | - |
| 1777318403 | 33.89° C | 45% | 1009.1 hPa | 0 mm | - | 267 W/m² | - |
| 1777318100 | 33.89° C | 46% | 1009.2 hPa | 0 mm | - | 120 W/m² | - |
| 1777317797 | 33.89° C | 44% | 1009.1 hPa | 0 mm | - | 102 W/m² | - |
| 1777317494 | 33.89° C | 44% | 1009 hPa | 0 mm | - | 334 W/m² | - |
| 1777317191 | 33.33° C | 45% | 1009.3 hPa | 0 mm | - | 624 W/m² | - |
| 1777316886 | 33.89° C | 51% | 1009.1 hPa | 0 mm | - | 155 W/m² | - |
| 1777316584 | 33.89° C | 50% | 1009.2 hPa | 0 mm | - | 166 W/m² | - |
| 1777316280 | 33.33° C | 48% | 1009.4 hPa | 0 mm | - | 138 W/m² | - |
* Rain latest hour (hover to see other rain measurements)
** Current wind speed in m/s (hover to see current wind gust speed)